Location: Étouvelles
(49.5207°N, 3.5808°E)
Time: 07:11:00
(UTC+00:00)

Cosmos 1943 Rocket - Pass Details

Date: 03 February 2023
Orbit: 811 x 844 km, 71.0° (Epoch: 24 March)

Event Time Altitude Azimuth Distance (km) Brightness Sun altitude
Rises 20:35:11 0° 332° (NNW) 3,415 5.9 -37.3°
Reaches altitude 10° 20:37:40 10° 335° (NNW) 2,476 5.1 -37.7°
Enters shadow 20:39:20 20° 339° (NNW) 1,872 4.3 -37.9°
